Regional Weather Roundup
Issued by NWS Charleston, SC

Current Version | Previous Version | Graphics & Text | Print | Product List | Glossary On
Versions: 1 2 3 4 5 6 7 8 9 10 11 12 13 14 15 16 17 18 19 20 21 22 23 24 25 26 27 28 29 30 31 32 33 34 35 36 37 38 39 40 41 42 43 44 45 46 47 48 49 50
000
ASUS42 KCHS 211012
RWRCHS

REGIONAL WEATHER ROUNDUP
NATIONAL WEATHER SERVICE CHARLESTON SC
600 AM EDT MON AUG 21 2017

NOTE: "FAIR" INDICATES FEW OR NO CLOUDS BELOW 12,000 FEET WITH NO
SIGNIFICANT WEATHER AND/OR OBSTRUCTIONS TO VISIBILITY.

NOT ALL STATIONS ARE QUALITY CONTROLLED. USE DATA WITH CAUTION...
ESPECIALLY DEWPOINT OBSERVATIONS.

SCZ027-030-031-034>040-042>050-211100-
...SOUTHEAST SOUTH CAROLINA...

CITY           SKY/WX    TMP DP  RH WIND       PRES   REMARKS
N CHARLESTON   PTCLDY    77  77 100 NE5       30.14R
WATERFRONT PRK   N/A     83  78  84 CALM      29.97R HX  93
JOHNS ISLAND   FAIR      79  77  94 CALM      30.14R
PINOPOLIS        N/A     81  79  94 CALM      30.07R
MONCKS CORNER  PTSUNNY   73  73 100 CALM      30.15R FOG
SUMMERVILLE    FAIR      75  73  94 N3        30.16R
BEAUFORT MCAS  CLEAR     78  78 100 N5        30.13R FOG
BEAUFORT ARPT  FAIR      79  77  94 N3        30.12R
HILTON HEAD IS NOT AVBL
WALTERBORO     MOSUNNY   73  73 100 CALM      30.15R
ALLENDALE      NOT AVBL

...SOUTHERN MIDLANDS AND PEE DEE...

CITY           SKY/WX    TMP DP  RH WIND       PRES   REMARKS
GEORGETOWN     FAIR      75  73  94 CALM      30.15S
KINGSTREE      FAIR      72  70  94 CALM      30.15R FOG
ORANGEBURG     CLEAR     75  73  93 CALM      30.16R
BARNWELL       FAIR      75  75 100 CALM      30.15R
AIKEN          FAIR      72  72 100 CALM      30.20R
MANNING        FAIR      73  73 100 NE3       30.15R
COLUMBIA       PTCLDY    76  72  87 CALM      30.16R
SUMTER         PTCLDY    74  72  92 CALM      30.14R
FLORENCE       PTCLDY    75  75 100 CALM      30.17R
MYRTLE BEACH   NOT AVBL
N MYRTLE BEACH MOCLDY    78  77  96 CALM      30.15R

$$

GAZ063-065-086>088-099>101-113>116-118-119-134>141-150-211100-
...SOUTHEAST GEORGIA...

CITY           SKY/WX    TMP DP  RH WIND       PRES   REMARKS
SAVANNAH ARPT  PTCLDY    78  77  96 N5        30.13R
HUNTER AAF     CLEAR     78  76  92 CALM      30.10R
FORT STEWART   PTCLDY    75  74  95 CALM      30.10R
STATESBORO     PTCLDY    77  77 100 CALM      30.13S
SYLVANIA       PTSUNNY   76  76 100 CALM      30.15R FOG
CLAXTON        FAIR      74  74  98 CALM      30.13R

...CSRA...CENTRAL AND FAR SOUTHEAST GEORGIA...

CITY           SKY/WX    TMP DP  RH WIND       PRES   REMARKS
THOMSON        CLEAR     73  72  96 CALM      30.20R
AUGUSTA-BUSH   FOG       77  75  93 CALM      30.14S VSB 1
AUGUSTA-DANIEL CLEAR     79  74  84 SE3       30.16R
SWAINSBORO     FAIR      73  73 100 CALM      30.14S
VIDALIA        PTCLDY    75  73  94 CALM      30.13S
EASTMAN        FAIR      73  73 100 CALM      30.15R
HAZLEHURST     FAIR      74  72  91 CALM      30.12R
ALMA           CLEAR     72  70  93 CALM      30.12R
WAYCROSS       CLEAR     72  69  90 CALM      30.12R
JESUP          FAIR      73  70  88 CALM      30.12R
BAXLEY         FAIR      70  70 100 CALM      30.12R
BRUNSWICK      CLOUDY    77  73  88 CALM      30.11R FOG
SAINT SIMONS   MOCLDY    81  78  91 CALM      30.10R

$$

SCZ027-028-034-036>038-045-046-048>050-GAZ119-141-211100-
...LAKE AND SUPPLEMENTAL COASTAL OBSERVATIONS...

STATION/POSITION TIME  TEMP    WIND        PRES    WAVE   SWELL
                       AIR SEA DIR/SP/G            HT/PER HT/PER/DIR
                 (UTC) (F)     (DEG/KT/KT) (MB)    (FT/S) (FT/S/D)
WINYAH BAY       0845   78      20/  2     1020.0
LAKE MURRAY      0920   80        CALM     1020.0
ACE BASIN NERRS  0845   78        CALM     1020.0
FORT PULASKI     0942   83 87  350/  4/  5 1020.3R
SAPELO ISLAND    0900   80        CALM     1019.0

$$

ANZ835-935-AMZ111-154-330-350-352-354-370-450-454-472-211100-
...C-MAN AND BUOY OBSERVATIONS...

STATION/POSITION TIME  TEMP    WIND        PRES    WAVE   SWELL
                       AIR SEA DIR/SP/G            HT/PER HT/PER/DIR
                 (UTC) (F)     (DEG/KT/KT) (MB)    (FT/S) (FT/S/D)
BUOY 41004       0950   83 85  330/  2/  4 1020.0R   3/ 8   3/140/ 8
BUOY 41008       0950   83 85  160/  2/  4 1019.4R   3/ 8   2/110/ 8
FOLLY BEACH CMAN 0900   82     330/  2/  2 1020.4S
CAPERS NEARSHORE 0908   82 86  210/  2/  4 1019.8S
FRIPP NEARSHORE  0908   84     190/  6/  8 1019.3S


STATION/POSITION TIME  TEMP    WIND        PRES    WAVE   SWELL
                       AIR SEA DIR/SP/G            HT/PER HT/PER/DIR
                 (UTC) (F)     (DEG/KT/KT) (MB)    (FT/S) (FT/S/D)
5E ST. MARYS GA  0930      84                N/A     2/ 8
FRYING PAN BUOY  0950   83 84  190/  4/  6 1020.8R   2/ 8   2/140/ 8
BUOY 41025       0950   82 85   30/  8/ 10 1021.1S   2/ 8   2/120/ 8
CAPE LOOKOUT NC  0900   81      30/  5/  6 1020.7S
BUOY 41002       0950   83 84  170/  8/ 10 1021.4R   3/ 9   2/ 80/ 9
BUOY 41010       0950   83 84  120/  6/  8 1019.5R   2/ 8   2/120/ 8
ST AUGUSTINE FL  1000   80 81   60/  1/  1 1019.3R


$$




USA.gov is the U.S. government's official web portal to all federal, state and local government web resources and services.